08/04/21 00:33:13 UTC
343.250 MHz
CLINTWOOD, VA
Mid-air re-fueling training
 
08/02/21 19:29:41 UTC
238.1000 MHz
CAPE MAY, NJ
BOBCAT 1 checking in with Giant Killer
 
08/02/21 18:50:13 UTC
346.525 MHz
WHEELING, IL
BISON1 checking w/ Phoenix for entry to Oshkosh, WI
 
08/02/21 16:51:18 UTC
276.500 MHz
CLINTWOOD, VA
Mid-air re-fueling training
 
08/02/21 15:31:17 UTC
343.250 MHz
CLINTWOOD, VA
Mid-air re-fueling training
 

07/26/21 15:43:59 UTC
140.150 MHz
NOTAM for KMEB LAURINBURG-MAXTON 07/006 - SVC TEMPO TWR LOCAL CTL 122.8, GCA CTL 140.15. 30 JUL 12:00 2021 UNTIL 30 JUL 16:00 2021. CREATED: 26 JUL 12:55 2021. 1 of 3 covering July26-30. -AJ
 
07/07/21 16:21:19 UTC
40.775 MHz
M0483/21 - AERODROME SOUTHEAST RAMP – 82ND CAB CONDUCTING FARP OPS FOR PARTICIPATING AIRCRAFT ONLY. OPERATIONAL FREQ FM 40.775. PILOTS USE CAUTION ENTERING AND EXITING THE FARP. 06 JUL 19:59 2021 UNTIL 01 OCT 21:00 2021. CREATED: 06 JUL 19:59 2021 -AJ
 
06/09/21 17:50:56 UTC
299.30 MHz
Couple of FA-18's from Beaufort Marine Corp Air Station or better known as BMCAS
 
06/03/21 19:38:53 UTC
260.725 MHz
Copy we are inbound at this time
 
05/31/21 16:08:14 UTC
69.425 MHz
Third party report of frequency being in use in vic of Concord NC approx 1700h. 2x UH-60M, 07-20035 (AE47E5) and 07-20063 (AE47FC) seen in the area of KJQF on ADSBexchange just prior to the 2021 Coca-Cola 600. Prev noted in use by demo team helos, one being VIPER188 at 2019 Coca-Cola 600. 5/30/2021 -AJ
 
05/12/21 23:25:24 UTC
123 700 MHz
gulfport
 
05/05/21 17:10:14 UTC
376.025 MHz
EPIC41 to OMEGA18 (OMEGA DZ normal callsign for KVUJ DZ). Talking as if doing an airdrop, which would normally be at KVUJ. ADSBexchange flight track for 00-0183 (AE08E3) shows a racetrack over Rockwell NC vic. Unknown activities between approx 18-1900 ish 5/4/2021 -AJ
 


Military Air & Space Communications Facebook Group
Facebook Group: Military Air & Space Communications.
2700+ members, logs, how too's & more. Please click the link and join.


MilRadioComms Website Stats and Page Views
Stats were started on 10/15/2018. This table lists each page of the MilRadioComms website along with the number of its each page has received from when these stats were started. The total page views of this website can been seen at the bottom of this table.

Advertising Banner Stats Since 10/26/18 - Total Impressions: 3476511

Webpage Views Since 10/15/2018:
ID#
Page
Hits
Date of Last Hit
14 search_mil_hexcodes.html 1167746 08/04/21 15:00:07
8 mil_air_modes_logger.html 948704 08/04/21 14:49:43
22 hex_code_profile.php 854254 08/04/21 15:00:45
165 mil_air_spotters_network_refresh.php 704754 08/04/21 13:08:31
4 index.html 430981 08/04/21 14:54:39
10 search_frequency.php 326255 08/04/21 14:56:38
16 uhf_facsfacjax.html 46428 08/04/21 14:39:41
9 mil_air_spotters_network.html 46095 08/04/21 13:03:29
23 mil_hexcode_database.html 38655 08/04/21 14:58:32
33 mil_uhf_freq.html 25525 08/04/21 14:52:18
32 refuel_tracks.html 23656 08/04/21 13:56:31
13 artcc_transmitter_locations.html 21731 08/04/21 12:16:09
38 artcc_frequencies.html 21436 08/04/21 14:49:00
21 mil_freq_database.html 18916 08/04/21 14:56:40
167 latest_frequencies.php 13069 08/04/21 11:36:49
169 army_satellite_communications_manual.html 12803 08/04/21 14:09:03
69 search_spots_zipcode.php 12704 08/04/21 12:16:37
123 blue_angels_frequencies.html 12561 08/04/21 14:50:32
27 aircraft_carrier.html 12066 08/04/21 14:17:13
37 audio_library.html 11926 08/04/21 14:38:33
17 mil_hf_freq.html 11453 08/04/21 10:32:24
116 thunderbird_frequencies.html 10893 08/04/21 14:40:52
26 mil_callsigns.html 9874 08/04/21 12:16:20
28 search_callsigns.php 8768 08/04/21 09:22:20
75 ghfs.html 8711 08/04/21 11:11:04
34 arinc_coverage.html 7566 08/04/21 14:58:06
15 milsat_antenna.html 6463 08/04/21 10:55:04
35 tactical_brevity_codes.html 6113 08/04/21 14:41:58
71 login_2.html 6091 08/04/21 12:24:14
11 scanner_articles.html 6037 08/04/21 14:35:15
173 air-force-thunderbirds-support-manual-2020.html 5696 08/04/21 08:31:36
40 artcc_zau.html 5676 08/04/21 14:53:24
74 uhf_cap.html 5568 08/04/21 12:49:07
18 cothen.html 5464 08/04/21 14:44:10
42 artcc_zdc.html 5441 08/04/21 07:04:01
7 web_stats.html 5334 08/04/21 15:00:48
65 scanner_search_mode.html 5310 08/04/21 06:05:37
46 artcc_zjx.html 5224 08/04/21 13:11:35
80 secret_service.html 5134 08/04/21 12:15:57
50 artcc_zma.html 4879 08/04/21 14:45:00
53 artcc_zny.html 4870 08/04/21 11:40:21
39 artcc_radar_sites.html 4787 08/03/21 19:29:48
44 artcc_zfw.html 4761 08/04/21 14:52:37
45 artcc_zid.html 4744 08/04/21 14:45:14
168 acars.html 4724 08/04/21 10:30:49
48 artcc_zla.html 4643 08/04/21 14:58:51
41 artcc_zbw.html 4625 08/04/21 14:57:45
130 shack.html 4550 08/04/21 07:12:29
55 artcc_zob.html 4549 08/04/21 14:47:55
24 artcc_zab.html 4465 08/04/21 08:31:36
5 awacs_adiz_frequencies.html 4454 08/04/21 07:03:57
57 artcc_ztl.html 4423 08/04/21 10:32:23
47 artcc_zkc.html 4397 08/04/21 11:36:54
59 raspberry_pi_scanner_projects.html 4397 08/04/21 08:08:48
20 artcc_zhu.html 4373 08/04/21 10:32:19
51 artcc_zme.html 4363 08/04/21 14:23:53
36 mil_air_spotters_network_help.html 4255 08/04/21 09:43:48
108 pinecastle_range.html 4251 08/04/21 14:01:46
56 artcc_zse.html 4246 08/04/21 12:16:10
52 artcc_zmp.html 4106 08/04/21 14:48:47
60 police_fl_freq.html 4094 08/04/21 10:34:44
19 killing_rf_noise.html 4075 08/04/21 10:32:29
166 volmet_broadcast_frequencies.html 4031 08/04/21 14:30:47
67 lineofsightcalculatormap.php 4009 08/04/21 14:43:07
43 artcc_zdv.html 4006 08/04/21 10:32:33
49 artcc_zlc.html 3967 08/04/21 10:12:46
122 avon_park_range.html 3773 08/04/21 13:16:06
70 arinc_hf.html 3723 08/04/21 00:02:13
54 artcc_zoa.html 3658 08/04/21 10:12:44
58 product_reviews.html 3658 08/03/21 22:16:33
107 uhf_facsfacva.html 3413 08/04/21 10:40:55
154 nellis_afb_range_chart.html 3303 08/04/21 10:27:28
133 top_100_milair_frequencies.html 3232 08/04/21 11:45:49
12 mode_s_sharing_windows.html 3227 08/04/21 12:22:25
29 older_stuff.html 3153 08/04/21 10:12:51
66 raspberry_pi_dongle_streaming.html 3152 08/04/21 13:07:31
164 telint.html 3147 08/04/21 14:49:31
72 uscg.html 3114 08/04/21 12:16:37
63 sam26000.html 3112 08/04/21 14:53:40
136 uhf_facsfacsd.html 3004 08/04/21 00:44:16
126 icao_hf_enroute_networks.html 2990 08/04/21 14:33:32
76 facsfac.html 2986 08/04/21 12:16:35
61 editorials.html 2977 08/04/21 14:00:06
6 raspberry_pi_scanner_streaming.html 2828 08/03/21 17:48:31
64 microwave_letter_bands.html 2808 08/04/21 07:04:04
68 map_milair_spots_v2.html 2783 08/03/21 15:09:14
62 national_hurricane_operations_plan.html 2754 08/04/21 14:33:29
174 arinc-avs-operating-procedures-handbook-2017.html 2737 08/04/21 14:46:15
73 hf_nasa.html 2648 08/03/21 20:01:57
87 uhf_ksc.html 2632 08/03/21 21:08:21
96 police_fl_volusia.html 2621 08/04/21 12:16:12
175 5g-mobile-telephone-spectrum.html 2471 08/04/21 14:07:44
93 link11.html 2465 08/04/21 14:43:18
101 antenna_mounted_amplifier.html 2435 08/04/21 13:07:49
111 gallery.html 2425 08/04/21 05:06:50
117 kosovo.html 2371 08/03/21 21:32:18
145 mwara_north_america.html 2322 08/04/21 07:12:27
135 uhf_facsfacpn.html 2177 08/04/21 12:15:59
91 raspberry_pi_setup.html 2164 08/04/21 13:07:29
113 uhf_tinker.html 2148 08/04/21 14:50:52
112 review_pro2052.html 2140 08/04/21 13:07:49
139 war_iraq.html 2126 08/04/21 12:16:20
106 review_stridsberg_mca204.html 2118 08/03/21 05:50:57
97 uhf_selridge.html 2117 08/03/21 15:00:22
159 submit_spot_zipcode_v3.php 2098 08/04/21 13:07:15
78 adsb_dongle_aircraft_radar.html 1978 08/04/21 12:16:26
127 new_user.html 1951 08/04/21 13:07:41
118 coax_loss.html 1879 08/04/21 07:04:00
25 iraq_us_propaganda_broadcast.html 1818 08/03/21 05:53:12
160 mil_air_modes_logger_retrieve.php 1795 08/03/21 05:52:31
137 uhf_ftriley.html 1789 08/04/21 11:36:59
90 adsb_antenna.html 1774 08/04/21 07:12:34
30 mil_air_modes_status.html 1762 08/03/21 05:52:27
86 police_fl_volusia_nontrunk.html 1762 08/04/21 11:37:04
105 review_scanner_beam.html 1748 08/04/21 01:12:39
129 raspberry_pi_fm_transmitter.html 1744 08/04/21 11:37:03
119 adsb_dongle_raspberry_pi.html 1682 08/04/21 12:13:01
120 adsb_how_to_use_it.html 1631 08/04/21 07:12:34
134 uhf_facsfacph.html 1631 08/04/21 07:04:04
125 folding20.html 1629 08/04/21 07:12:28
31 map_mode_s_data.html 1609 08/04/21 02:42:25
98 raspberry_pi_scanner_audio_controller.html 1591 08/04/21 11:37:02
89 raspberry_pi_portable_radar_system.html 1581 08/04/21 07:12:24
110 mobile_radio_shack.html 1539 08/03/21 05:53:22
84 review_miltenna.html 1527 08/04/21 07:12:33
171 ksc-firing-room-1.html 1513 08/04/21 11:37:15
140 whatis_facsfac.html 1495 08/04/21 07:12:25
131 shuttle_monitoring.html 1411 08/04/21 14:45:24
83 sdr_noaa_satellite.html 1314 08/04/21 07:03:58
94 milaircomms_themovie.html 1305 08/03/21 16:33:34
151 raspberry_pi_mode_s_sharing.html 1248 08/03/21 16:14:12
141 voa.html 1166 08/04/21 11:37:02
146 search_airport_frequencies.php 1163 08/04/21 00:48:29
92 police_fl_lakeland.html 1160 08/04/21 07:04:04
124 edt_independence.html 1129 08/03/21 20:10:25
128 police_fl_fpl.html 1127 08/04/21 14:43:30
132 tbirddab.html 1121 08/04/21 07:12:29
88 search_airport_frequencies_zipcode.html 1107 08/04/21 09:58:29
104 davis_rf.html 1067 08/04/21 12:16:42
114 audio_ua93.html 1066 08/03/21 08:50:26
152 sunspots.html 1065 08/04/21 07:12:25
138 volusia_10_codes.html 1013 08/03/21 05:51:33
153 treasury_building_washington.html 983 08/04/21 11:37:03
81 daytonabeachf18lowpass.html 976 08/04/21 11:37:03
150 mwara_mid_east_2.html 966 08/04/21 11:15:11
82 constitution.html 959 08/04/21 05:15:17
162 submit_callsign.php 959 08/03/21 00:17:12
100 ksc_launch_control_center_firing_room_4.html 957 08/04/21 13:07:28
121 audio_sts107.html 934 08/04/21 02:28:30
95 audio_dabemergency.html 918 08/03/21 05:51:29
147 atlantis_747_daytona_beach.html 912 08/04/21 13:07:24
99 audio_customs_border_patrol.html 906 08/03/21 05:51:31
85 shuttle_photos.html 893 08/04/21 00:40:23
115 audio_sts113.html 893 08/03/21 18:38:17
149 mwara_mid_east.html 873 08/03/21 14:25:37
109 submarine.html 856 08/03/21 05:51:36
155 submit_new_user.php 841 07/30/21 16:38:04
142 shuttle_sts108_photos.html 831 08/03/21 05:51:37
144 faa_washington.html 805 08/04/21 11:37:03
148 iraq_maps.html 786 08/03/21 06:55:30
143 middle_east_shortwave.html 778 07/30/21 07:38:00
79 members_only.html 712 07/30/21 16:38:24
163 ad_info.html 672 08/01/21 21:20:00
77 submit_frequency.php 538 07/26/21 22:34:37
172 comptuex-2003.html 396 08/03/21 09:53:47
161 mil_air_modes_logger_retrieve_text.php 338 08/02/21 16:08:52
156 change_user_info.html 288 07/27/21 20:15:19
102 submit_spot_zipcode_v2.php 160 11/05/19 00:26:49
103 search_spots_email.php 151 08/02/21 18:51:40
157 update_user.php 66 04/19/21 13:44:40
158 mil_air_modes_logger_test_auto.html 8 11/03/18 00:02:18
170 1 04/25/19 18:45:43

Total MilRadioComms Page Views since 10/15/2018 = 5184381